This is the latest recevied weather packets stored in our database for station/object KO5S. If no packets are shown the sender has not sent any weather packets the latest 10 day(s).
| Time | Temp. | Humidity | Pressure | Rain* | Wind** | Luminosity | Snow |
|---|---|---|---|---|---|---|---|
| 1778092696 | 26.67° C | 89% | 1010.1 hPa | 0 mm | - | - | - |
| 1778092097 | 26.11° C | 90% | 1010.3 hPa | 0 mm | - | - | - |
| 1778091497 | 26.11° C | 91% | 1010.4 hPa | 0 mm | - | - | - |
| 1778086697 | 25° C | 91% | 1010.9 hPa | 0.76 mm | - | - | - |
| 1778080096 | 24.44° C | 91% | 1010.6 hPa | 0 mm | - | - | - |
| 1778074096 | 23.33° C | 93% | 1009.9 hPa | 0 mm | - | - | - |
| 1778071696 | 22.78° C | 94% | 1009.7 hPa | 0 mm | - | - | - |
| 1778070496 | 22.22° C | 94% | 1009.7 hPa | 0 mm | - | - | - |
| 1778064497 | 21.11° C | 93% | 1008.4 hPa | 0 mm | - | - | - |
| 1778058497 | 20.56° C | 93% | 1008 hPa | 0 mm | - | - | - |
| 1778051336 | 19.44° C | 92% | 1008.8 hPa | 0 mm | - | - | - |
| 1778049516 | 19.44° C | 92% | 1009.1 hPa | 0 mm | - | - | - |
| 1778044696 | 19.44° C | 91% | 1009.5 hPa | 0 mm | - | - | - |
| 1778041695 | 19.44° C | 90% | 1009.5 hPa | 0 mm | - | - | - |
| 1778039295 | 20° C | 89% | 1009.6 hPa | 0 mm | - | - | - |
| 1778037495 | 20.56° C | 89% | 1009.7 hPa | 0 mm | - | - | - |
| 1778036896 | 20.56° C | 89% | 1009.8 hPa | 0 mm | - | - | - |
| 1778032715 | 21.11° C | 88% | 1008.9 hPa | 0 mm | - | - | - |
| 1778029695 | 21.67° C | 86% | 1009.1 hPa | 0 mm | - | - | - |
| 1778029095 | 21.67° C | 85% | 1009 hPa | 0 mm | - | - | - |
| 1778027315 | 22.22° C | 84% | 1008.9 hPa | 0 mm | - | - | - |
| 1778022495 | 23.89° C | 78% | 1008.8 hPa | 0 mm | - | - | - |
| 1778018895 | 25° C | 74% | 1008.6 hPa | 0 mm | - | - | - |
| 1778017097 | 26.11° C | 72% | 1008.5 hPa | 0 mm | - | - | - |
| 1778016518 | 25.56° C | 72% | 1008.5 hPa | 0 mm | - | - | - |
* Rain latest hour (hover to see other rain measurements)
** Current wind speed in m/s (hover to see current wind gust speed)